User: anonymous   Login
Location: Wingville
(42.9917°N, 90.4915°W)
Time: 01:51:49
(UTC+00:00)
Language:

FO-99 - Orbit

View from above orbital plane
View from above orbital plane
View from above satellite
View from above satellite

Ground track
Ground track

The orbit data is extracted from the following two-line orbital elements,

1 43937U 19003F   22180.58903447  .00006498  00000-0  21812-3 0  9996
2 43937  97.1288 213.4683 0022583 109.7712 250.5968 15.30944530191838
Epoch (UTC): 29 June 2022 14:08:12
Eccentricity: 0.0022583
inclination: 97.1288°
perigee height: 457 km
apogee height: 488 km
right ascension of ascending node: 213.4683°
argument of perigee: 109.7712°
revolutions per day: 15.30944530
mean anomaly at epoch: 250.5968°
orbit number at epoch: 19183

The dashed part of the orbit path shows where the satellite is in the earth's shadow,  

DLR